Theta_e
344 346 346 348 347 347 347 347 347 348 348 349 349 350 351 351 351 351 351 351 351 351 351 351 351 351 350 350 351 352 352 352 351 350 349 349 349 349 349 349 350 350 352 351 349 349 350 352 353 354 354 355 354 352 351 353 354 354 353 353 353 353 353
344 345 345 347 348 349 348 347 347 348 348 349 349 350 351 351 352 352 351 351 351 351 351 351 351 350 350 351 352 353 353 352 352 351 349 348 349 349 349 349 349 349 351 352 351 351 351 353 354 354 354 355 355 353 351 351 353 354 353 353 353 354 354
344 344 345 347 348 349 348 347 348 348 348 349 349 350 351 352 352 352 352 352 351 351 351 351 351 349 349 351 352 353 353 353 353 351 350 348 349 349 350 350 350 350 350 351 352 352 351 352 354 354 354 355 354 353 352 351 353 354 353 353 353 353 354
346 344 344 346 347 348 347 347 348 348 349 350 350 350 351 352 352 352 352 352 352 352 352 351 351 350 350 351 352 353 354 354 353 352 351 350 350 351 351 352 351 351 350 351 352 352 352 353 353 353 354 354 354 354 353 353 355 355 354 354 354 354 354
350 346 345 345 347 348 347 347 348 348 349 350 350 350 351 351 353 353 352 352 352 352 352 351 351 351 351 352 353 354 354 354 354 353 353 352 353 352 352 352 351 351 350 351 352 352 352 353 353 353 353 354 355 354 353 354 355 355 355 355 355 355 355
351 349 346 345 346 347 347 347 348 348 349 350 351 351 351 352 353 353 353 353 353 352 353 353 353 353 352 352 353 354 354 354 354 354 354 354 353 353 352 352 352 351 351 351 352 353 353 353 353 353 353 354 355 354 354 354 354 355 355 356 355 355 355
351 351 347 345 345 346 347 347 347 348 349 350 351 351 351 352 353 354 354 353 354 354 354 354 354 353 353 353 353 354 355 355 354 354 354 353 353 353 353 352 352 352 352 352 353 353 353 352 353 354 353 354 354 354 354 355 355 355 354 355 355 356 355
350 351 348 345 345 345 345 346 347 348 349 349 350 351 351 352 353 353 354 354 354 354 354 354 354 354 354 353 354 354 354 355 354 353 353 353 353 353 353 353 353 352 352 353 353 353 353 353 354 354 353 353 354 354 354 355 355 355 354 354 355 356 355
349 351 350 346 345 344 344 346 347 347 348 349 350 351 351 352 353 353 354 354 354 354 355 354 354 354 353 354 354 354 354 354 354 353 353 353 353 353 354 354 353 353 354 354 354 354 354 353 354 355 354 354 354 355 356 356 355 355 354 355 355 357 356
350 352 352 349 347 346 344 344 346 346 347 348 349 351 352 352 352 353 353 354 354 355 354 354 354 354 354 354 354 354 354 354 353 352 353 353 353 354 355 355 354 355 355 355 355 355 353 352 353 355 356 356 356 356 356 356 356 356 356 356 356 357 357
353 354 355 354 352 349 347 346 346 345 346 348 349 350 351 352 352 353 353 354 354 354 354 354 354 354 354 354 354 355 355 354 353 352 353 353 354 354 356 356 356 356 356 356 355 355 354 353 354 355 356 356 356 356 356 356 356 356 357 357 357 357 357
356 357 360 359 356 353 350 347 346 345 346 347 348 350 351 351 352 352 353 353 354 354 354 354 354 354 354 354 354 355 354 353 353 352 353 354 355 355 356 356 356 356 356 356 356 356 356 355 355 355 356 356 355 355 355 356 356 357 357 357 356 356 357
358 360 362 363 361 356 353 351 348 345 345 347 348 350 351 351 352 353 353 353 353 353 354 354 354 354 354 354 354 354 353 352 351 351 352 354 355 356 357 357 356 355 355 356 357 357 356 355 356 356 355 355 355 355 355 355 356 356 356 356 356 355 356
360 363 363 364 364 360 356 356 351 345 344 347 348 349 351 351 352 352 353 353 353 353 353 353 353 353 354 354 354 354 352 350 348 349 351 353 354 356 357 356 355 354 355 356 356 357 356 355 355 355 355 355 355 355 355 355 355 355 355 356 356 355 356
360 362 362 364 366 362 359 359 353 345 344 346 347 349 350 351 352 353 353 353 353 353 354 353 353 353 353 354 354 353 352 350 349 348 349 351 353 355 357 356 355 354 355 356 357 356 355 354 354 354 355 355 355 355 355 355 355 355 355 355 355 355 356
359 360 361 362 363 362 360 357 350 344 344 346 346 348 350 351 352 353 353 353 354 354 354 354 354 354 353 353 353 352 352 351 350 349 349 350 352 354 356 356 356 356 356 356 357 356 356 354 354 354 353 354 354 354 355 355 355 355 354 355 355 355 355
357 357 358 357 357 357 357 355 350 345 346 347 346 348 350 351 352 353 353 353 353 354 354 354 354 354 354 354 353 352 352 352 352 352 351 351 352 353 354 355 356 356 356 356 356 356 356 355 354 354 353 354 354 354 354 354 354 354 354 355 355 354 355
355 355 355 355 355 355 354 354 351 347 347 347 347 348 349 351 352 352 353 353 353 354 355 355 355 355 354 354 354 353 353 353 353 353 353 353 353 353 353 354 355 356 356 355 355 355 355 354 354 354 353 353 354 354 354 354 354 354 354 354 354 354 355
352 352 352 352 354 356 354 351 348 347 348 348 348 349 349 350 352 352 353 353 353 354 355 355 356 355 355 355 354 354 354 354 354 354 354 354 353 353 354 354 355 356 355 354 354 354 354 353 353 353 353 353 354 354 354 354 354 354 354 354 354 354 355
349 349 349 348 350 352 350 347 345 346 347 347 348 350 350 350 350 351 352 353 353 354 354 355 355 354 355 354 353 353 354 354 355 355 354 354 354 354 354 354 354 354 354 354 354 353 353 353 352 352 351 352 353 353 354 354 354 354 353 353 354 354 355
347 347 347 348 348 347 346 345 346 346 346 345 346 347 349 350 350 350 351 351 352 353 353 353 353 353 354 354 353 353 352 351 353 355 355 355 354 354 354 353 353 353 354 354 353 353 352 351 351 351 350 350 352 353 353 353 353 354 353 353 354 354 355
345 344 344 345 345 343 342 343 345 346 346 346 345 345 347 349 349 350 350 350 350 350 351 351 351 349 348 350 352 352 351 349 348 350 352 353 353 352 353 353 353 353 353 352 352 352 351 351 350 350 349 349 351 352 352 353 353 353 353 353 353 354 355
342 341 341 340 340 340 340 342 344 346 346 347 347 347 347 348 349 349 349 349 349 349 349 349 348 347 347 348 350 350 350 349 347 346 347 350 351 352 352 352 352 353 352 352 352 351 351 350 350 350 349 350 350 351 351 351 352 351 352 352 352 352 353
338 337 337 337 337 338 338 339 341 343 344 346 346 347 347 347 348 348 347 347 347 347 346 344 345 346 347 348 348 348 348 349 348 347 345 347 350 351 352 351 351 351 351 350 351 352 352 351 351 350 350 350 350 350 350 349 349 348 348 349 349 349 349
335 335 335 335 335 335 335 336 338 339 341 342 343 345 346 346 346 346 346 345 345 345 344 343 343 345 347 347 345 346 348 348 348 348 346 346 349 350 350 349 349 349 350 348 348 350 352 353 352 351 351 350 348 348 346 345 345 345 346 346 347 347 348
333 333 333 333 333 333 334 335 336 336 337 338 339 342 344 345 345 344 344 344 344 344 343 343 343 345 347 347 344 345 348 348 348 348 346 347 349 348 346 347 347 348 349 348 346 346 348 352 352 350 349 348 346 345 344 343 344 344 345 346 346 346 347
331 331 331 331 332 332 333 333 333 334 334 335 338 339 341 342 341 341 341 341 341 341 342 343 344 345 346 345 344 345 347 348 347 346 345 346 348 346 345 346 346 347 347 348 347 346 346 349 348 345 344 343 342 342 341 341 341 342 343 344 345 346 346
330 330 330 331 331 331 331 331 331 332 332 334 336 337 339 340 338 337 338 337 336 338 341 343 344 344 345 344 344 344 345 346 346 345 344 345 346 345 345 345 345 345 345 345 346 345 345 345 343 341 340 339 338 338 337 336 337 339 340 341 342 343 343
329 329 329 330 330 330 330 329 330 330 330 332 334 334 336 336 334 333 334 333 334 337 340 342 343 343 343 343 343 343 342 343 343 343 344 344 344 343 344 343 343 343 343 343 344 343 343 342 341 339 337 334 333 333 332 332 333 334 335 336 337 338 338
328 328 329 330 329 329 329 329 328 329 329 330 331 332 333 332 331 331 331 330 332 336 338 339 341 341 342 341 340 340 340 340 341 342 342 343 343 343 343 343 342 342 342 342 342 341 340 339 337 335 333 331 330 329 328 329 329 329 329 329 329 330 330
327 328 329 330 329 328 328 328 328 328 328 328 328 329 329 329 329 330 330 329 330 331 334 336 338 338 337 335 335 336 336 337 338 339 340 341 341 341 341 341 342 342 341 341 339 338 336 335 334 332 330 329 327 326 325 325 326 325 325 325 325 325 324
328 328 329 329 329 328 327 328 328 328 327 327 327 327 326 327 327 328 328 328 329 329 330 333 334 332 330 328 329 331 332 332 333 334 336 338 340 340 339 339 339 338 338 337 336 335 334 333 331 330 329 327 325 324 325 325 324 324 324 324 324 323 320
327 327 327 328 327 325 324 324 325 326 326 326 326 326 325 325 326 325 325 325 326 327 329 329 330 329 328 327 327 328 330 330 330 331 332 334 337 338 338 338 337 335 333 332 331 332 332 332 330 329 328 326 325 325 326 326 325 324 323 322 321 320 318
326 327 327 327 325 323 322 323 323 324 325 325 325 325 325 325 325 325 324 323 324 325 326 327 327 328 329 329 329 329 330 329 329 330 330 332 333 334 334 334 334 334 333 331 331 331 331 330 329 328 328 327 326 326 326 324 322 320 318 317 317 317 317
325 326 325 325 324 324 324 324 325 325 325 325 325 325 325 325 324 324 324 324 324 324 324 325 325 325 325 328 330 331 330 329 329 330 330 330 330 330 330 330 330 331 332 332 333 332 332 331 330 329 328 328 328 327 326 322 318 316 316 316 316 317 317
324 326 324 323 324 325 324 325 327 327 326 326 326 326 326 326 325 324 324 324 325 325 324 324 324 324 324 326 328 329 329 329 329 329 329 328 327 327 327 327 327 328 329 331 332 334 334 334 333 330 329 329 329 326 323 320 318 317 317 317 317 316 316
324 326 325 324 325 325 325 326 327 327 327 327 326 327 327 326 326 325 325 325 326 326 326 325 325 324 326 327 327 328 328 328 328 327 326 326 325 325 325 324 324 325 325 327 330 332 334 336 335 332 329 329 327 323 319 317 318 317 316 316 315 315 314
325 326 326 326 326 325 326 326 326 326 326 327 327 327 327 327 327 326 325 326 326 326 327 326 326 326 326 327 327 327 327 327 328 326 324 323 322 323 323 322 322 322 322 323 326 328 330 332 331 329 326 324 322 320 317 316 316 315 315 314 313 313 313
Wind_Speed
8 9 9 8 9 10 11 16 20 20 22 23 24 25 26 26 27 28 28 29 30 29 28 28 26 26 26 25 22 20 19 18 17 17 18 19 19 18 18 18 17 16 15 14 15 15 15 14 13 12 11 10 10 9 10 11 9 7 6 6 6 6 6
8 9 9 9 9 10 12 18 21 21 22 23 24 25 25 25 27 28 28 29 30 29 29 28 27 27 27 26 23 20 20 19 18 17 18 19 19 18 18 17 17 17 16 15 14 14 15 14 13 12 12 11 11 10 10 11 10 9 8 7 7 7 7
9 9 10 10 10 11 13 17 20 21 23 23 24 25 26 27 28 29 29 29 29 28 28 27 26 26 27 26 23 21 20 20 19 19 19 19 19 18 17 17 16 16 16 16 15 15 15 15 14 13 12 12 11 10 11 11 11 10 9 9 8 8 8
8 9 10 11 11 11 13 17 20 21 23 25 26 27 28 29 30 29 29 29 29 28 28 28 27 26 27 26 24 22 21 20 20 20 19 19 18 17 17 17 17 17 17 17 16 16 16 15 15 15 14 13 12 11 12 12 11 11 10 10 10 10 9
7 8 9 9 10 10 11 16 20 22 23 24 26 27 29 29 29 28 29 29 29 29 29 28 27 27 26 26 25 24 22 21 20 20 19 18 17 17 18 18 17 17 17 17 16 16 16 16 16 16 16 15 13 12 13 13 12 12 11 11 11 11 11
6 7 8 9 10 9 11 16 21 23 25 26 27 28 27 27 27 27 28 28 28 28 27 27 27 27 27 26 25 24 23 22 21 21 20 18 17 17 18 18 18 18 17 16 16 17 17 17 17 16 16 16 15 14 14 14 14 14 14 13 13 13 13
7 7 8 9 10 10 11 16 20 23 25 26 27 27 26 26 27 28 28 28 28 27 27 27 28 27 27 27 26 25 24 23 23 22 22 20 18 17 17 18 18 18 17 17 17 17 18 18 17 17 17 16 16 15 15 15 15 15 15 15 14 14 13
9 8 8 9 10 10 11 15 19 21 23 23 24 24 25 26 26 26 27 28 28 27 27 28 28 28 28 27 27 26 25 24 23 22 22 21 20 19 18 18 19 18 18 18 18 18 18 18 17 17 17 17 17 17 16 15 15 15 15 16 15 14 13
10 8 8 9 10 10 12 17 20 21 22 22 23 24 25 26 26 27 28 28 27 27 28 28 28 28 28 27 27 26 25 24 23 22 22 21 21 20 19 18 18 18 18 18 17 18 18 18 17 17 17 17 17 17 17 16 15 15 15 15 15 14 14
9 8 7 7 8 9 12 16 18 18 20 21 22 24 25 26 26 27 27 27 27 28 29 28 28 28 27 27 27 26 25 24 23 22 22 22 21 20 19 18 18 17 17 17 16 16 17 17 17 16 16 17 18 18 17 16 16 16 16 15 15 15 15
7 7 7 6 7 7 10 13 14 17 20 21 23 24 25 26 26 27 27 27 28 29 29 28 28 28 28 28 27 26 25 25 24 23 22 22 22 21 20 19 19 18 17 16 16 16 16 16 17 17 17 18 17 18 18 17 17 17 17 16 16 16 15
5 6 6 6 6 7 8 10 12 17 19 21 23 24 25 26 27 27 27 28 29 29 29 28 28 27 28 27 27 27 26 25 25 24 24 23 23 22 21 21 20 19 18 17 17 16 16 16 17 17 18 18 17 18 18 18 18 18 17 17 17 17 16
5 5 4 4 4 6 7 8 10 15 19 21 23 24 26 27 28 28 27 28 29 29 28 27 27 27 27 27 27 27 27 27 27 26 25 24 23 22 22 22 21 20 19 18 17 17 18 18 18 18 18 17 17 18 18 18 18 18 17 17 16 17 17
6 6 4 3 3 4 6 7 8 12 17 21 22 23 24 25 27 28 28 29 29 29 28 27 26 26 26 26 27 27 28 28 27 27 26 25 24 22 22 22 22 21 20 19 18 18 18 18 18 18 18 18 18 18 18 18 19 18 18 17 17 17 17
6 5 4 3 3 3 5 6 6 10 15 19 21 22 22 23 23 24 25 26 27 27 28 27 27 27 27 27 27 28 28 28 27 27 26 25 24 23 22 22 22 22 21 20 19 19 18 18 19 19 20 19 19 19 19 19 19 18 18 18 18 18 18
4 4 3 2 2 1 3 4 5 8 12 16 19 20 21 22 23 24 24 23 22 23 25 26 26 27 27 28 29 29 28 27 27 27 27 26 25 24 23 22 22 22 22 22 21 20 20 19 19 20 21 21 20 20 20 20 20 19 18 18 18 19 19
5 4 2 2 2 2 2 4 6 7 10 13 16 19 20 22 23 23 23 22 22 23 23 24 25 26 27 28 28 27 27 27 26 26 26 26 26 25 23 22 23 23 23 23 23 22 22 21 21 21 21 21 21 21 21 21 21 20 19 19 19 20 20
3 3 2 2 2 2 2 3 5 7 10 13 16 18 19 21 21 21 22 22 23 23 22 22 23 23 24 25 24 24 24 24 25 25 25 25 26 26 25 23 23 23 23 24 24 23 22 21 21 21 21 21 21 22 22 22 21 21 21 21 20 21 21
4 2 1 1 1 1 2 2 3 6 10 13 15 17 18 19 20 20 20 19 18 18 19 20 19 18 17 18 20 22 23 23 22 23 24 25 25 25 25 25 25 24 24 24 23 23 23 22 21 21 21 21 22 22 22 22 21 22 22 22 22 21 21
5 4 3 3 2 1 2 3 2 4 3 4 8 11 12 15 17 18 18 17 16 17 18 19 20 18 16 15 14 14 16 19 21 22 23 24 24 25 25 25 26 25 25 25 24 24 24 23 22 22 22 22 23 23 23 22 22 23 23 22 22 22 22
6 5 5 4 3 3 3 3 3 6 6 5 5 5 7 9 12 14 16 17 18 18 17 17 17 17 17 17 16 14 14 15 18 22 24 24 23 23 23 25 26 26 26 25 24 24 24 24 23 23 22 22 22 22 23 23 23 23 23 22 22 22 22
7 7 6 6 5 5 5 5 3 1 3 5 8 10 10 11 11 12 14 15 16 17 16 16 15 13 11 12 16 20 19 17 18 19 20 20 19 17 17 18 21 24 25 25 23 22 22 22 22 22 22 22 21 20 21 22 23 23 23 22 22 22 23
9 8 8 9 9 8 8 7 5 4 5 7 10 12 13 14 14 14 15 15 15 15 15 14 14 15 14 13 14 17 19 18 18 18 17 16 17 18 17 16 15 17 18 20 22 21 20 19 19 20 21 21 20 19 19 20 21 21 21 21 20 20 21
11 10 10 11 12 12 12 11 8 5 4 7 10 11 12 13 14 16 17 17 16 15 14 11 10 15 19 18 17 16 16 16 17 17 17 16 17 19 21 21 19 17 15 15 17 19 18 17 17 16 16 16 16 16 16 16 17 17 17 18 18 18 18
10 11 12 14 15 15 16 16 14 10 7 8 8 8 10 11 12 13 14 14 13 12 12 12 12 15 17 16 17 18 16 13 14 13 14 17 19 19 18 18 17 18 16 14 15 16 15 14 14 14 12 11 11 11 11 11 12 13 13 13 14 14 14
10 11 13 15 17 18 19 20 19 16 14 12 9 6 8 10 10 10 10 10 10 10 10 12 13 14 14 13 15 16 13 10 9 8 11 17 18 14 13 14 14 15 15 13 13 14 12 11 11 10 8 7 6 7 8 8 9 9 9 9 9 9 10
12 13 14 15 16 19 21 21 21 21 18 15 13 10 10 12 13 13 12 11 10 9 8 8 8 10 10 9 9 8 7 6 7 8 12 17 16 12 12 14 16 17 16 13 12 13 11 9 6 4 4 4 4 5 5 5 5 5 5 5 6 6 6
14 15 16 17 18 19 20 21 21 21 20 17 16 14 13 16 17 16 16 15 13 9 7 7 6 7 7 5 2 1 1 2 4 6 9 11 11 11 13 14 14 15 12 8 7 9 8 5 3 4 6 6 5 4 4 4 2 1 0 2 4 5 5
12 13 15 17 18 19 21 21 21 21 21 20 18 17 17 20 20 19 19 17 13 9 8 8 7 8 8 8 7 7 6 4 2 2 4 4 3 5 7 9 10 10 8 6 6 6 6 5 5 7 8 9 9 8 9 9 9 9 8 7 7 6 5
12 13 14 15 15 18 20 21 21 22 22 21 20 19 19 21 21 21 20 17 13 13 13 12 11 10 10 11 11 11 11 10 8 5 4 3 2 1 2 4 6 7 8 7 8 8 8 8 8 10 11 12 12 12 11 12 13 14 14 13 13 13 12
11 12 13 14 16 18 20 20 21 22 22 21 21 20 20 20 20 21 19 15 14 16 16 15 14 14 15 16 16 15 16 15 14 11 10 8 6 5 3 2 6 8 9 9 11 13 14 13 12 12 13 13 13 12 10 9 10 11 11 12 13 12 12
10 11 13 14 15 16 17 19 20 20 20 20 20 19 19 19 19 19 17 15 15 15 15 16 16 16 16 16 16 15 16 16 16 14 13 11 9 10 12 12 13 13 13 14 15 16 15 14 12 13 14 13 12 11 10 8 8 9 9 10 10 10 10
8 9 11 11 12 13 15 17 18 18 19 18 17 17 18 18 17 16 14 14 14 13 13 15 15 14 12 12 12 12 12 13 14 13 12 11 11 13 16 16 16 16 16 15 15 14 13 12 11 12 13 12 10 9 8 7 7 7 7 8 9 8 8
7 8 9 10 11 13 15 16 16 16 16 16 15 15 16 15 14 12 11 12 12 11 11 12 13 13 13 10 9 8 9 10 11 11 11 11 11 13 15 14 14 14 14 13 12 11 11 10 10 11 11 11 10 9 8 7 6 6 7 7 7 6 5
6 8 9 10 11 13 14 15 14 14 14 13 12 13 13 13 11 10 10 11 10 10 10 11 10 11 12 11 9 8 8 9 10 10 11 11 12 13 14 12 11 11 10 9 8 8 8 9 9 9 10 10 10 9 8 7 6 5 5 4 3 3 3
6 8 9 10 10 10 11 12 11 11 11 10 10 11 12 12 11 10 10 10 10 10 11 11 10 10 10 10 9 9 8 8 9 10 11 11 13 14 14 13 12 11 10 9 7 5 5 7 7 7 8 9 9 8 7 6 5 4 2 2 3 4 5
7 8 9 9 9 9 10 10 9 9 9 9 9 9 10 11 12 12 11 10 10 10 10 10 11 11 9 9 9 9 8 8 9 10 11 12 12 12 13 13 12 11 10 10 9 7 5 4 4 5 6 7 7 7 7 6 4 2 3 5 6 8 8
7 8 8 8 9 9 9 9 8 8 8 7 7 8 9 10 11 12 11 10 9 9 9 9 10 10 9 8 8 8 8 8 8 8 10 11 11 10 10 11 11 11 11 9 8 8 8 8 7 7 6 5 5 6 6 4 4 4 6 7 7 7 7
Wind_Direction
175 179 181 177 177 178 180 182 181 181 181 183 185 185 185 186 188 189 191 194 196 198 200 203 205 208 208 209 212 217 222 224 228 231 229 228 230 231 230 229 227 225 224 225 225 225 226 223 224 233 237 242 253 255 246 240 241 246 248 254 262 269 280
179 181 182 177 178 182 185 184 182 182 184 186 187 186 186 188 189 190 193 195 197 200 201 203 205 207 208 211 215 220 222 226 231 233 231 230 231 232 232 231 230 227 227 230 234 235 233 230 232 237 239 244 253 253 245 238 238 243 246 252 260 268 278
186 184 180 180 181 182 184 184 185 186 186 186 187 188 189 191 193 194 195 196 197 200 202 204 207 208 209 212 218 222 224 227 229 231 232 231 231 232 232 232 233 232 231 234 239 240 236 235 238 241 244 248 252 250 241 234 235 242 245 249 256 263 271
187 188 181 182 182 182 183 183 186 188 189 189 189 190 192 195 197 197 198 199 199 200 203 206 208 210 210 213 218 222 225 226 227 228 229 230 231 233 234 234 235 234 235 238 241 240 237 237 240 244 247 249 250 246 239 233 235 242 245 247 252 259 266
181 185 180 180 180 182 184 186 188 189 190 192 192 193 195 196 197 198 200 202 203 204 207 208 210 211 213 215 218 222 224 226 227 226 226 227 231 233 236 238 237 236 238 240 240 238 238 240 242 246 246 246 247 244 236 233 237 242 245 248 253 259 265
170 178 178 180 181 182 185 188 191 191 191 192 194 196 197 196 196 198 201 203 205 207 208 208 209 211 214 216 219 221 223 225 227 226 227 230 233 234 237 239 238 238 239 241 240 239 240 243 246 248 246 244 246 243 237 239 244 248 249 251 256 263 268
165 173 180 181 182 182 184 188 192 194 195 194 195 196 196 196 198 200 201 203 205 206 207 208 210 211 214 217 219 221 223 226 227 228 230 233 236 238 239 239 239 240 241 243 242 241 242 245 247 248 246 246 246 244 242 247 251 252 252 254 257 264 269
166 168 181 182 180 181 182 186 191 195 196 195 194 195 196 197 198 199 202 204 205 206 207 210 210 211 214 216 218 221 224 227 229 230 232 234 236 239 240 240 240 241 242 244 244 244 244 246 248 247 245 245 246 245 247 252 253 251 251 254 257 262 266
168 163 176 179 178 180 181 185 190 193 195 195 195 196 196 198 199 201 204 204 204 206 209 211 212 213 214 216 219 222 224 227 230 231 233 233 235 237 239 239 240 242 244 245 245 245 245 246 246 245 244 245 245 245 248 252 251 248 249 252 254 259 262
168 160 168 174 176 178 180 183 186 190 194 196 196 197 197 198 200 202 204 205 206 208 211 212 213 213 214 216 219 222 223 225 228 229 231 231 233 235 237 238 239 243 245 245 246 245 244 243 243 242 244 246 247 246 249 251 250 249 250 252 254 257 260
162 156 156 165 171 172 176 180 184 189 194 196 197 198 198 199 201 203 205 206 208 211 213 213 213 213 213 216 218 219 221 223 224 226 228 229 231 234 237 238 241 245 245 244 245 246 244 242 241 242 245 248 250 250 250 250 251 252 253 254 255 256 258
146 147 146 161 169 172 177 180 185 190 193 197 198 198 198 200 202 204 206 208 211 213 213 213 213 213 213 214 215 217 220 221 222 224 226 228 230 234 237 239 241 244 245 245 248 249 247 245 244 245 247 250 252 252 250 250 252 254 255 256 256 255 255
120 119 121 141 157 170 179 182 188 191 194 198 200 200 200 201 203 204 205 208 212 213 213 213 213 212 213 214 214 216 219 221 223 225 227 229 231 235 239 241 242 243 243 245 251 251 249 248 246 246 248 251 252 251 251 252 253 255 256 257 255 253 254
110 106 100 105 120 155 180 185 188 190 193 197 200 201 202 203 204 206 207 209 211 212 213 213 211 211 213 214 214 217 220 222 224 226 228 231 233 236 239 241 242 241 241 245 250 251 249 248 248 248 249 251 252 252 252 255 256 255 255 254 253 253 255
111 106 105 112 112 141 175 185 188 189 193 197 197 199 201 203 206 208 210 212 211 211 212 212 211 211 212 213 216 220 222 223 224 226 229 231 233 235 238 241 242 241 241 244 248 249 249 251 252 251 252 253 254 253 252 254 255 254 253 253 252 253 257
128 120 117 119 95 110 153 158 164 176 186 193 195 196 197 199 203 206 210 212 213 213 213 211 211 211 211 214 218 222 223 224 225 226 228 229 232 235 237 240 241 242 243 244 246 249 251 254 255 254 256 258 258 257 253 252 253 253 254 255 255 256 258
149 150 138 99 45 40 106 128 135 146 160 176 189 193 195 198 201 203 206 209 211 214 214 213 213 213 213 216 220 222 223 225 226 227 228 230 232 235 237 241 243 244 245 246 248 251 253 255 256 256 258 261 262 261 258 256 255 255 256 258 260 260 259
121 136 143 131 88 65 99 127 134 139 145 157 172 183 189 194 196 198 203 206 210 212 212 213 216 216 216 217 219 222 223 225 227 228 230 233 235 237 238 242 245 247 248 248 249 251 254 255 256 257 259 262 263 262 260 261 262 261 262 263 263 262 259
56 54 85 138 173 162 179 179 150 145 143 147 161 174 184 190 192 195 199 200 202 203 203 206 210 215 218 220 222 223 223 225 227 231 234 236 237 240 241 242 246 249 250 250 250 251 253 254 256 258 260 261 261 261 261 263 266 267 266 266 264 262 258
39 33 33 14 346 320 293 288 249 217 193 146 148 157 168 182 188 190 191 191 191 193 198 202 203 205 210 216 222 227 228 226 225 228 234 238 239 242 242 243 246 249 250 250 251 253 255 257 259 260 262 262 259 259 260 261 264 266 266 264 263 261 258
36 34 29 19 10 8 352 333 275 249 256 251 217 196 182 177 176 178 181 184 186 187 194 200 201 203 208 211 216 229 245 252 244 234 231 235 240 242 243 246 248 250 252 253 253 255 257 259 260 259 260 259 258 257 256 255 257 259 260 260 260 259 257
41 38 30 28 31 28 19 11 24 123 200 218 218 217 207 186 174 171 171 175 181 184 189 195 198 206 223 228 226 228 235 251 265 259 241 229 230 234 238 247 253 253 252 251 251 252 253 253 253 255 255 254 254 253 251 250 251 251 252 254 255 256 256
42 41 38 41 43 40 33 22 29 79 139 173 186 193 191 183 179 176 169 167 171 174 176 182 192 209 229 245 246 237 229 231 248 264 258 234 221 223 229 239 252 258 257 252 247 243 243 245 245 248 252 252 251 249 246 247 248 248 248 249 251 253 255
40 39 38 42 45 43 41 40 38 49 112 144 156 169 173 170 170 168 164 164 169 172 172 178 203 221 228 238 247 245 236 227 229 243 253 247 236 234 235 236 239 244 251 257 251 240 233 234 236 239 244 248 248 247 244 244 246 246 248 249 251 254 257
39 39 39 42 46 46 47 51 54 50 57 81 103 134 150 155 156 150 148 156 166 172 174 177 196 212 221 234 245 243 237 231 226 228 240 248 246 242 239 237 236 237 240 250 258 250 232 224 227 229 230 234 239 240 236 235 237 240 243 244 247 251 255
36 34 35 38 45 52 53 55 56 52 43 41 52 94 134 147 146 136 132 139 145 151 162 173 185 197 208 223 236 240 239 236 235 231 236 243 243 233 227 234 239 240 239 241 252 256 246 232 229 225 218 214 216 215 214 215 221 229 233 235 238 244 249
49 45 43 44 49 55 56 55 55 53 45 42 51 73 103 122 123 118 118 115 106 108 132 156 168 175 184 200 220 235 244 250 253 246 240 244 241 224 218 227 231 232 235 237 243 249 249 243 232 203 169 163 176 187 194 201 214 224 232 242 250 254 261
52 51 50 52 55 59 59 56 55 55 52 54 65 79 97 106 103 97 97 93 84 90 117 129 126 125 126 127 114 32 10 291 264 246 240 247 246 230 224 227 229 231 235 233 231 237 241 237 201 149 139 139 144 152 144 135 147 171 287 311 312 304 301
57 55 52 52 54 60 64 62 58 57 57 61 67 75 84 89 84 78 77 76 75 83 95 93 85 80 80 78 66 54 56 63 86 191 208 223 238 240 234 231 231 231 223 202 199 220 233 224 185 153 138 125 114 107 100 94 89 83 78 71 59 47 32
61 64 64 63 63 65 68 67 65 64 64 65 68 70 74 77 76 72 70 68 69 73 71 69 71 74 76 76 74 74 78 80 81 91 106 111 102 343 284 253 238 224 208 194 189 191 188 175 159 142 128 115 105 95 85 81 79 74 70 69 68 65 62
65 71 74 74 74 73 72 72 71 70 67 66 68 69 69 71 72 70 68 67 70 74 75 77 80 81 81 79 80 83 86 83 79 74 70 68 64 60 72 170 194 188 179 169 163 160 154 148 145 139 129 120 110 99 89 82 80 75 69 66 64 60 57
72 79 82 80 78 77 77 77 76 73 68 65 65 66 65 66 68 69 69 69 69 72 77 84 87 86 81 76 76 78 80 80 78 75 72 73 77 86 97 112 129 138 143 145 147 149 146 142 141 137 130 123 115 110 109 100 91 88 82 75 71 65 58
79 81 84 84 82 82 83 81 78 75 72 68 64 64 64 63 64 67 67 66 66 67 73 78 81 82 78 79 84 84 83 85 85 82 82 86 90 97 102 108 116 123 130 135 139 141 141 141 142 139 136 133 127 125 124 115 100 90 75 62 62 64 58
97 96 91 89 89 88 86 83 81 80 79 76 72 70 67 63 60 60 61 61 61 66 71 71 69 67 66 74 90 96 97 97 93 88 89 94 97 98 100 104 110 117 125 132 138 141 143 147 152 155 153 149 144 137 125 109 93 82 73 65 61 62 58
110 107 101 96 95 94 91 88 86 84 82 80 79 76 72 68 62 56 55 54 52 58 66 66 61 58 55 57 70 87 98 97 89 84 88 95 100 99 97 95 96 101 110 122 136 149 158 164 170 174 170 159 149 138 126 117 107 95 89 84 66 43 25
128 119 111 106 101 98 95 93 91 89 86 82 78 74 70 67 64 59 55 51 48 53 58 57 54 53 50 47 54 69 84 88 88 92 97 100 102 101 99 95 90 88 90 92 98 122 161 182 189 186 176 163 149 138 131 130 129 120 85 12 351 340 330
140 128 121 118 113 105 101 99 95 92 90 87 80 73 67 62 60 56 55 54 51 50 50 48 46 46 44 42 44 50 62 76 89 101 109 111 110 108 107 103 98 92 88 85 83 90 106 137 161 166 166 161 149 140 135 127 114 79 5 345 339 332 324
129 127 126 125 121 114 110 106 99 94 91 88 80 69 61 58 54 49 47 48 46 44 44 42 42 41 39 37 36 37 46 64 85 102 111 114 114 113 113 112 108 102 97 92 89 88 88 91 104 120 127 124 120 122 120 101 62 29 11 3 359 357 358